Retour au catalogue

DELTA 1 DEB

ActifSSO
NORAD 26823·DEBRIS·🇺🇸 United States

Lancé Jun 12, 1975 depuis Vandenberg Space Force Base

Loading…

Prochains Passages (prochaines 24 heures)

TLE

FraisSource: Space-Track

Époque: Sep 14, 2026, 04:18 UTC

1 26823U 75052KD  26257.17939771  .00000941  00000-0  14104-2 0  9992
2 26823 100.0009 137.3689 0045682 281.5695 230.6901 13.55616149718650

Suivez DELTA 1 DEB en temps réel avec AllMySat

Download on the App Store